SCP
0 0 0 0 0 0 0 0 0 0 0 0 0 0 -0 0 -0 -0 0 -0 -0 -0 0 0 0 0 0
0 0 0 0 0 0 0 0 0 0 0 0 0 0 0 0 0 0 0 0 0 0 0 0 0 0 0
0 -0 0 0 0 0 0 0 0 0 0 0 0 0 0 0 0 0 0 0 0 0 0 0 0 0 0
0 -0 0 0 0 0 0 0 0 0 0 0 0 0 0 0 0 0 0 0 0 0 0 0 -0 0 0
0 -0 -0 0 0 0 0 0 0 0 0 0 0 0 0 0 0 0 0 0 0 0 -0 -0 -0 -0 0
0 -0 -0 0 0 0 0 0 0 0 0 0 0 0 0 0 0 0 0 0 0 0 0 -0 -0 -0 -0
0 0 0 0 0 0 0 0 0 0 0 0 0 0 0 0 0 0 0 0 0 0 0 0 0 0 0
0 0 0 0 0 0 0 0 0 0 0 0 0 0 0 0 0 0 0 0 0 0 0 0 0 0 0
0 0 0 0 0 0 0 0 0 0 0 0 0 0 0 0 0 0 0 0 0 0 0 0 0 0 0
0 0 0 0 0 0 0 0 0 0 0 0 0 0 0 0 0 0 0 0 0 0 0 0 0 0 0
0 0 0 0 0 0 0 0 0 0 0 0 0 0 0 0 0 0 0 0 0 0 0 0 0 0 0
0 0 0 0 0 0 0 0 0 0 0 0 0 0 0 0 0 0 0 0 0 0 0 0 0 0 0
0 0 0 -0 0 0 0 0 0 0 0 0 0 0 0 0 0 0 0 0 0 0 0 0 0 0 0
0 0 0 0 0 0 0 0 0 0 0 0 0 0 0 0 0 0 0 0 0 0 0 0 0 0 0
0 0 0 0 0 0 0 0 0 0 0 0 0 0 0 0 0 0 0 0 0 0 0 0 0 0 0
0 0 0 0 0 0 0 0 0 0 0 0 0 0 0 0 0 0 0 0 0 0 0 0 0 0 0
Wind_Speed_500mb
26 28 34 33 32 32 31 30 32 28 25 34 42 47 40 37 28 25 22 21 18 18 16 16 19 18 14
13 33 37 40 38 31 29 28 32 32 29 30 37 48 43 34 25 26 23 21 19 18 15 11 11 12 12
20 34 40 43 43 34 29 28 31 35 34 33 44 49 41 31 35 30 21 19 22 19 17 16 12 11 12
37 43 42 50 50 40 31 27 30 37 39 38 43 47 44 39 37 33 26 20 18 17 16 16 12 12 12
66 61 71 59 62 46 36 28 29 36 41 43 46 48 42 38 37 37 28 22 17 15 14 13 14 11 11
35 55 51 66 65 49 39 35 33 36 43 48 48 51 46 37 33 33 30 24 21 14 10 8 8 8 7
20 30 34 60 57 48 40 39 37 37 44 47 48 46 36 35 37 35 33 29 26 17 10 6 2 3 8
25 28 15 57 49 42 39 41 41 40 40 44 46 47 37 34 36 39 34 30 28 21 15 7 6 6 17
4 21 14 8 45 39 37 40 42 44 38 40 39 40 41 38 35 33 36 32 31 26 21 15 11 15 20
7 7 10 12 41 39 38 41 42 42 42 41 40 36 37 40 39 39 39 39 35 31 26 24 21 22 21
10 6 8 24 17 37 41 43 44 46 47 42 42 40 40 40 41 41 41 40 38 35 34 32 28 28 28
13 14 15 17 26 22 38 45 47 49 51 51 45 44 41 39 37 38 40 39 40 36 35 33 33 32 33
9 11 15 15 25 25 28 50 48 49 51 55 52 46 42 40 35 34 34 36 36 34 34 36 36 35 35
11 5 7 7 18 38 15 30 52 53 53 52 57 51 44 41 40 38 36 34 34 34 34 30 27 28 24
14 13 6 11 10 18 24 17 37 53 57 56 53 48 43 42 43 42 40 36 34 34 32 28 13 8 11
18 12 10 11 11 10 23 25 12 46 44 61 55 51 46 40 43 41 40 37 41 38 35 38 37 40 25
Wind_Direction_500mb
206 229 237 228 217 208 203 201 207 208 199 195 193 188 182 169 165 150 143 122 117 116 107 102 104 106 107
230 225 233 232 217 212 211 208 209 211 203 193 194 191 181 176 170 164 145 127 119 108 93 90 103 106 105
271 288 224 232 225 220 214 211 210 206 200 197 191 194 187 187 180 162 146 131 122 111 96 80 89 100 100
265 280 247 228 228 220 215 213 209 203 197 191 198 195 188 188 184 164 155 143 131 118 116 89 85 96 81
256 288 289 247 222 213 209 197 197 194 191 187 197 200 186 184 188 172 166 158 157 144 124 105 87 82 47
276 280 290 246 210 205 203 194 192 190 194 188 196 201 185 186 188 185 177 179 181 176 153 132 92 73 37
249 280 301 220 199 202 207 201 191 193 196 196 196 202 208 203 196 190 194 199 193 195 188 192 278 359 349
259 280 302 182 197 201 204 204 196 198 198 202 198 205 208 210 203 204 203 210 208 211 207 232 264 303 323
269 226 258 207 190 200 202 201 200 199 198 196 208 213 210 199 197 203 206 213 218 226 225 242 268 274 302
265 256 175 285 214 201 201 199 205 202 202 196 202 207 210 208 207 209 209 214 219 231 238 246 258 263 288
268 258 185 289 188 203 203 204 207 205 204 204 204 206 206 210 212 212 215 220 226 234 243 249 257 264 279
258 238 189 211 224 218 215 208 211 214 214 205 206 208 209 211 212 214 219 223 229 233 242 251 259 270 278
288 246 218 195 181 213 232 223 222 217 217 213 207 207 212 213 217 216 220 224 231 238 243 255 264 275 277
301 256 212 225 177 214 202 228 225 224 220 218 211 209 207 214 221 223 224 227 233 240 251 259 282 290 289
328 284 229 203 199 187 188 217 226 229 226 220 216 210 217 215 222 229 227 235 239 246 250 248 276 270 351
337 298 255 208 199 230 199 202 228 220 232 224 214 211 216 217 220 226 232 236 243 243 247 249 253 260 276
Wind_Speed_850mb
26 28 34 33 32 32 31 30 32 28 25 34 42 47 40 37 28 25 22 21 18 18 16 16 19 18 14
13 33 37 40 38 31 29 28 32 32 29 30 37 48 43 34 25 26 23 21 19 18 15 11 11 12 12
20 34 40 43 43 34 29 28 31 35 34 33 44 49 41 31 35 30 21 19 22 19 17 16 12 11 12
37 43 42 50 50 40 31 27 30 37 39 38 43 47 44 39 37 33 26 20 18 17 16 16 12 12 12
66 61 71 59 62 46 36 28 29 36 41 43 46 48 42 38 37 37 28 22 17 15 14 13 14 11 11
35 55 51 66 65 49 39 35 33 36 43 48 48 51 46 37 33 33 30 24 21 14 10 8 8 8 7
20 30 34 60 57 48 40 39 37 37 44 47 48 46 36 35 37 35 33 29 26 17 10 6 2 3 8
25 28 15 57 49 42 39 41 41 40 40 44 46 47 37 34 36 39 34 30 28 21 15 7 6 6 17
4 21 14 8 45 39 37 40 42 44 38 40 39 40 41 38 35 33 36 32 31 26 21 15 11 15 20
7 7 10 12 41 39 38 41 42 42 42 41 40 36 37 40 39 39 39 39 35 31 26 24 21 22 21
10 6 8 24 17 37 41 43 44 46 47 42 42 40 40 40 41 41 41 40 38 35 34 32 28 28 28
13 14 15 17 26 22 38 45 47 49 51 51 45 44 41 39 37 38 40 39 40 36 35 33 33 32 33
9 11 15 15 25 25 28 50 48 49 51 55 52 46 42 40 35 34 34 36 36 34 34 36 36 35 35
11 5 7 7 18 38 15 30 52 53 53 52 57 51 44 41 40 38 36 34 34 34 34 30 27 28 24
14 13 6 11 10 18 24 17 37 53 57 56 53 48 43 42 43 42 40 36 34 34 32 28 13 8 11
18 12 10 11 11 10 23 25 12 46 44 61 55 51 46 40 43 41 40 37 41 38 35 38 37 40 25
Wind_Direction_850mb
206 229 237 228 217 208 203 201 207 208 199 195 193 188 182 169 165 150 143 122 117 116 107 102 104 106 107
230 225 233 232 217 212 211 208 209 211 203 193 194 191 181 176 170 164 145 127 119 108 93 90 103 106 105
271 288 224 232 225 220 214 211 210 206 200 197 191 194 187 187 180 162 146 131 122 111 96 80 89 100 100
265 280 247 228 228 220 215 213 209 203 197 191 198 195 188 188 184 164 155 143 131 118 116 89 85 96 81
256 288 289 247 222 213 209 197 197 194 191 187 197 200 186 184 188 172 166 158 157 144 124 105 87 82 47
276 280 290 246 210 205 203 194 192 190 194 188 196 201 185 186 188 185 177 179 181 176 153 132 92 73 37
249 280 301 220 199 202 207 201 191 193 196 196 196 202 208 203 196 190 194 199 193 195 188 192 278 359 349
259 280 302 182 197 201 204 204 196 198 198 202 198 205 208 210 203 204 203 210 208 211 207 232 264 303 323
269 226 258 207 190 200 202 201 200 199 198 196 208 213 210 199 197 203 206 213 218 226 225 242 268 274 302
265 256 175 285 214 201 201 199 205 202 202 196 202 207 210 208 207 209 209 214 219 231 238 246 258 263 288
268 258 185 289 188 203 203 204 207 205 204 204 204 206 206 210 212 212 215 220 226 234 243 249 257 264 279
258 238 189 211 224 218 215 208 211 214 214 205 206 208 209 211 212 214 219 223 229 233 242 251 259 270 278
288 246 218 195 181 213 232 223 222 217 217 213 207 207 212 213 217 216 220 224 231 238 243 255 264 275 277
301 256 212 225 177 214 202 228 225 224 220 218 211 209 207 214 221 223 224 227 233 240 251 259 282 290 289
328 284 229 203 199 187 188 217 226 229 226 220 216 210 217 215 222 229 227 235 239 246 250 248 276 270 351
337 298 255 208 199 230 199 202 228 220 232 224 214 211 216 217 220 226 232 236 243 243 247 249 253 260 276